星链-31900 (STARLINK-31900 )

导读

STARLINK-31900是美国星链计划低轨卫星之一,由SpaceX于2024年6月1日发射升空,服务于星链全球卫星互联网组网。依托星链密集低轨星座部署,它可为全球偏远地区、灾害现场等场景提供高速低延迟网络接入,同时该卫星也承担着补充星链星座容量,维持星座服务稳定性的作用。

Basic Information
目录编号:
59942
目录名称:
STARLINK-31900
国际标识:
2024-106W
轨道中心:
EARTH
卫星名称:
星链-31900
卫星全名:
星链-31900 (STARLINK-31900 )
卫星状态:
在轨 (已飞行832 天)
发射日期:
2024-06-01 UTC
国别 :
美国 (US)
星等 :
--
This satellite is enrolled in the Space Conjunction Data Service (SCDS) and the current flight risk assessment level is: No High Risk
Orbit Information
数据来源 国际轨道数据
星历时间: 2026-09-11T15:15:59+0800
7小时前
查看轨道信息
半长轴: 6861.223km
偏心率: 0.0001707
轨道倾角: 43.005°
近地点辐角 260.779°
升交点赤经 3.956°
平近点角 99.287°
近地点: 481.914km
远地点: 484.258km
周期: 94.268分钟
每日圈数: 15.275677
Detailed Information
固有亮度:
5
最大亮度:
1.5
卫星平台:
Starlink v2.0 mini
覆盖范围:
全球
运营商:
太空探索技术公司
运营商所在国:
美国
制造商(研发单位):
太空探索技术公司
制造商所在国:
美国
使用方式:
暂无
Satellite Introduction
星链(Starlink)计划是由太空探索技术公司(SpaceX)提出的一个巨型低轨卫星互联网星座项目,计划在2019年至2024年间在太空搭建由约1.2万颗卫星组成的“星链”网络,其中1584颗将部署在地球上空550千米处的近地轨道,并从2020年开始工作。该卫星仍在工作。
2D Orbit Map
3D Orbit Map
Orbit Altitude Analysis Chart
Orbit Inclination Analysis Chart
Orbit Comprehensive Analysis Chart
View Comprehensive Chart
Conjunction Data List
Event ID Objects TCA Miss Dist (km) Collision Risk Probability Collision Risk Index (CRI) Action
CDM_260913-085405-781105-994221
2026-09-13T
08:54:48+0000
0.738 km
远距离
4.757728E-5 中风险 0.69
CDM_260911-191905-670805-994221
2026-09-11T
19:19:51+0000
0.730 km
远距离
3.621216E-5 中风险 0.66
CDM_260911-205405-670805-994221
2026-09-11T
20:54:01+0000
1.000 km
极远距离
1.269044E-5 中风险 0.57
CDM_260913-072005-781105-994221
2026-09-13T
07:20:39+0000
1.302 km
极远距离
6.973315E-6 低风险 0.52
CDM_260911-174505-670805-994221
2026-09-11T
17:45:42+0000
1.225 km
极远距离
6.310141E-6 低风险 0.51
CDM_260911-222805-670805-994221
2026-09-11T
22:28:10+0000
1.714 km
极远距离
2.186332E-6 低风险 0.42
CDM_260913-054605-781105-994221
2026-09-13T
05:46:29+0000
1.914 km
极远距离
2.150847E-6 低风险 0.42
CDM_260911-161105-670805-994221
2026-09-11T
16:11:33+0000
1.965 km
极远距离
1.52833E-6 低风险 0.39
CDM_260913-041205-781105-994221
2026-09-13T
04:12:20+0000
2.536 km
极远距离
1.181238E-6 低风险 0.36
CDM_260912-114805-670805-994221
2026-09-12T
11:48:29+0000
2.240 km
极远距离
1.144925E-6 低风险 0.36
Miss Distance Evolution Trend with All Objects
Collision Probability Evolution Trend with All Objects